[[{"header":{"parameterUnit":"m.s-1","parameterCategory":2,"la1":30.2991,"la2":30.254,"lo1":-89.0895,"lo2":-89.0444,"dy":0.0017,"dx":0.0017,"nx":28,"ny":28,"refTime":"2025-09-14T03:00:00:Z","depth":"0","parameterNumber":2,"parameterNumberName":"U-component_of_CURRENTS"},"data":[0,0,0,0,0,0,0,0,0,0,0,0,0,0,0,0,0,0,0,0,0,0,0,0,0,0,0,0,0,0,0,0,0,0,0,0,0,0,0,0,0,0,0,0,0,0,0,0,0,0,0,0,0,0,0,0,0,0,-0.3084,-0.3084,0,-0.3083,-0.3082,-0.3082,-0.2973,-0.297,-0.2968,-0.2965,-0.2842,-0.2841,-0.284,0,0,0,0,0,0,0,0,0,0,0,0,0,-0.3004,-0.3005,-0.3084,-0.3084,-0.3084,-0.3083,-0.3082,-0.3082,-0.2973,-0.297,-0.2967,-0.2964,-0.2842,-0.2841,-0.284,0,0,0,0,0,0,0,0,0,0,0,0,0,-0.3021,-0.3006,-0.3084,-0.3032,-0.3028,-0.3083,-0.3082,-0.3082,-0.2974,-0.297,-0.2966,-0.2963,-0.2843,-0.2841,-0.284,-0.2909,0,0,-0.2836,-0.2835,0,0,0,0,0,0,0,0,-0.302,-0.3024,-0.304,-0.3036,-0.3031,-0.3027,-0.3009,-0.3019,-0.2975,-0.2991,-0.2965,-0.2961,-0.2897,-0.2891,-0.2897,-0.2903,-0.2898,-0.2836,-0.2835,-0.2834,-0.2834,0,0,0,0,0,0,0,-0.3019,-0.3023,-0.308,-0.304,-0.3035,-0.3013,-0.3011,-0.3011,-0.2961,-0.2989,-0.2982,-0.2988,-0.2893,-0.2899,-0.2893,-0.2896,-0.2836,-0.2835,-0.2834,-0.2833,-0.2954,-0.2958,0,0,0,0,0,0,-0.303,-0.3023,-0.308,-0.308,-0.302,-0.3018,-0.3016,-0.3029,-0.2963,-0.2952,-0.2992,-0.2983,-0.2903,-0.2895,-0.2888,-0.2967,-0.2834,-0.2833,-0.2832,-0.295,-0.2955,-0.296,0,0,0,0,0,0,-0.3029,-0.3036,-0.308,-0.3053,-0.3057,-0.3024,-0.304,-0.3032,-0.3018,-0.2967,-0.2951,-0.2985,-0.2899,-0.289,-0.2904,-0.296,-0.2833,-0.2831,-0.2946,-0.2952,-0.2957,-0.3123,0,0,0,0,0,0,-0.3026,-0.3035,-0.3047,-0.3054,-0.3059,-0.3135,-0.3044,-0.3034,-0.303,-0.3019,-0.2957,-0.2943,-0.2896,-0.2907,-0.2902,-0.2956,-0.283,-0.294,-0.2948,-0.2955,-0.3112,-0.3134,-0.3152,0,0,0,0,0,-0.3024,-0.3074,-0.3048,-0.3054,-0.3077,-0.3139,-0.3141,-0.31,-0.3034,-0.3064,-0.3017,-0.2943,-0.2951,-0.2909,-0.2903,-0.2958,-0.2937,-0.2946,-0.2955,-0.3103,-0.313,-0.3152,0,0,0,0,0,0,-0.3046,-0.3069,-0.3039,-0.3091,-0.3116,-0.3121,-0.3144,-0.3109,-0.3098,-0.3069,-0.2995,-0.2982,-0.3021,-0.2977,-0.2933,-0.302,-0.2933,-0.2941,-0.3048,-0.3072,-0.3092,-0.3024,-0.2829,0,0,0,0,0,-0.3059,-0.3094,-0.3114,-0.3153,-0.3171,-0.3152,-0.3165,-0.3144,-0.3137,-0.3125,-0.3084,-0.3053,-0.3064,-0.3053,-0.3056,-0.31,-0.298,-0.3134,-0.3154,-0.3171,-0.3116,-0.2965,-0.2963,-0.2989,-0.2989,-0.2989,0,0,-0.3072,-0.3093,-0.3107,-0.3159,-0.3165,-0.3228,-0.315,-0.3188,-0.3221,-0.3118,-0.3144,-0.3125,-0.3096,-0.3151,-0.3164,-0.3111,-0.3128,-0.3182,-0.3197,-0.3131,-0.2973,-0.2969,-0.2965,-0.2995,-0.2994,-0.2993,0,0,-0.3153,-0.3144,-0.3211,-0.3246,-0.3282,-0.3281,-0.3295,-0.3309,-0.3293,-0.334,-0.3275,-0.3273,-0.3295,-0.3274,-0.3268,-0.3399,-0.3246,-0.3424,-0.3453,-0.3311,-0.3304,-0.3297,-0.3235,-0.322,-0.3422,-0.3423,-0.3423,0,-0.3165,-0.3232,-0.3242,-0.3326,-0.333,-0.3311,-0.3364,-0.3396,-0.3407,-0.3352,-0.3368,-0.3323,-0.3347,-0.3331,-0.3419,-0.3437,-0.3338,-0.3365,-0.3327,-0.3317,-0.3305,-0.3243,-0.3224,-0.3432,-0.3431,-0.343,-0.3429,0,-0.3307,-0.3343,-0.339,-0.3465,-0.3495,-0.3537,-0.3566,-0.3569,-0.3536,-0.3508,-0.3475,-0.3496,-0.3423,-0.3497,-0.3521,-0.3476,-0.3433,-0.3374,-0.3247,-0.3311,-0.3245,-0.3223,-0.3445,-0.3441,-0.3439,-0.3437,0,0,-0.3345,-0.3456,-0.3467,-0.3421,-0.354,-0.3515,-0.3619,-0.3597,-0.351,-0.3574,-0.3457,-0.3583,-0.3498,-0.3489,-0.3496,-0.3437,-0.3397,-0.3398,-0.3386,-0.3304,-0.311,-0.3052,-0.3021,-0.33,-0.3295,-0.3291,-0.3127,0,-0.3419,-0.3487,-0.3587,-0.3591,-0.3565,-0.3592,-0.3626,-0.3602,-0.358,-0.3487,-0.3479,-0.3413,-0.3525,-0.347,-0.3445,-0.339,-0.3327,-0.3448,-0.3084,-0.3075,-0.2984,-0.2988,-0.2873,-0.2709,-0.3104,-0.31,-0.3097,0,-0.3519,-0.3492,-0.3519,-0.3435,-0.3434,-0.3471,-0.3337,-0.3383,-0.3331,-0.3304,-0.3256,-0.323,-0.3229,-0.3275,-0.3175,-0.3234,-0.3182,-0.3145,-0.3135,-0.2974,-0.2968,-0.2693,-0.2651,-0.2656,-0.306,-0.3063,-0.3065,0,-0.3343,-0.3421,-0.3366,-0.337,-0.3351,-0.3317,-0.33,-0.3268,-0.3237,-0.3154,-0.3102,-0.3046,-0.3018,-0.2936,-0.2997,-0.3033,-0.2838,-0.285,-0.2735,-0.2734,-0.2504,-0.2489,-0.2371,-0.268,-0.268,-0.2681,-0.2681,0,-0.3301,-0.3232,-0.3246,-0.3172,-0.3031,-0.3097,-0.2978,-0.296,-0.2956,-0.289,-0.2959,-0.2901,-0.292,-0.2869,-0.2879,-0.2764,-0.2731,-0.2703,-0.265,-0.2579,-0.2573,-0.2458,-0.2513,-0.2675,-0.2676,-0.2677,-0.2678,0,-0.309,-0.316,-0.3022,-0.2956,-0.2945,-0.2803,-0.2824,-0.2747,-0.2777,-0.2713,-0.2697,-0.2758,-0.2698,-0.2717,-0.2599,-0.2604,-0.2442,-0.2441,-0.242,-0.2366,-0.2255,-0.2325,-0.21,-0.2032,-0.2245,-0.2242,-0.2239,0,-0.2968,-0.2887,-0.2798,-0.2742,-0.272,-0.2606,-0.2578,-0.2624,-0.2613,-0.263,-0.2591,-0.2553,-0.2516,-0.2379,-0.2326,-0.2226,-0.2288,-0.2078,-0.2117,-0.2194,-0.2233,-0.2309,-0.2275,-0.1931,-0.1926,-0.1922,-0.1919,0,-0.2641,-0.2652,-0.2545,-0.2461,-0.2413,-0.2355,-0.2335,-0.2316,-0.2399,-0.2386,-0.2369,-0.233,-0.2238,-0.2107,-0.2018,-0.1958,-0.2036,-0.1991,-0.2014,-0.1914,-0.203,-0.1959,-0.2184,-0.1884,-0.1887,-0.189,-0.1892,-0.1893,-0.2386,-0.2279,-0.2231,-0.2146,-0.2126,-0.2112,-0.2024,-0.2086,-0.2057,-0.2036,-0.2125,-0.2034,-0.1981,-0.1824,-0.1759,-0.1642,-0.1737,-0.1614,-0.1681,-0.1744,-0.1692,-0.1892,-0.157,-0.1572,-0.1573,-0.1574,-0.1575,0,-0.2065,-0.2031,-0.1939,-0.1866,-0.1814,-0.1884,-0.1874,-0.1807,-0.1753,-0.1767,-0.1742,-0.1701,-0.1586,-0.1551,-0.146,-0.1384,-0.1364,-0.1374,-0.1446,-0.1413,-0.1498,-0.1499,-0.1212,-0.1212,-0.1212,-0.1212,-0.1212,-0.1212,-0.1896,-0.1745,-0.175,-0.1593,-0.1575,-0.1461,-0.1431,-0.1383,-0.1348,-0.1261,-0.1239,-0.1191,-0.1309,-0.1503,-0.1414,-0.1327,-0.133,-0.1278,-0.1334,-0.143,-0.1459,-0.1487,-0.1498,-0.1216,-0.1216,-0.1169,-0.1169,-0.1169]},{"header":{"parameterUnit":"m.s-1","parameterCategory":2,"la1":30.2991,"la2":30.254,"lo1":-89.0895,"lo2":-89.0444,"dy":0.0017,"dx":0.0017,"nx":28,"ny":28,"refTime":"2025-09-14T03:00:00:Z","depth":"0","parameterNumber":3,"parameterNumberName":"V-component_of_CURRENTS"},"data":[0,0,0,0,0,0,0,0,0,0,0,0,0,0,0,0,0,0,0,0,0,0,0,0,0,0,0,0,0,0,0,0,0,0,0,0,0,0,0,0,0,0,0,0,0,0,0,0,0,0,0,0,0,0,0,0,0,0,-0.0092,-0.0091,0,0.0013,0.0014,0.0016,0.0115,0.0116,0.0117,0.0118,0.0226,0.0228,0.0229,0,0,0,0,0,0,0,0,0,0,0,0,0,-0.02,-0.0199,-0.0092,-0.0091,-0.009,0.0013,0.0014,0.0016,0.0115,0.0116,0.0117,0.0119,0.0225,0.0227,0.023,0,0,0,0,0,0,0,0,0,0,0,0,0,-0.0129,-0.0198,-0.0093,-0.0029,-0.0023,0.0013,0.0015,0.0017,0.0114,0.0116,0.0118,0.0119,0.0225,0.0227,0.023,0.0213,0,0,0.0238,0.0239,0,0,0,0,0,0,0,0,-0.0133,-0.0125,-0.004,-0.0034,-0.0026,0.0051,0.0016,0.0082,0.0114,0.0064,0.0118,0.012,0.0166,0.0173,0.0191,0.0218,0.0223,0.0239,0.024,0.0241,0.0242,0,0,0,0,0,0,0,-0.0138,-0.0129,-0.0049,-0.0039,-0.003,-0.0004,0.0009,0.0029,0.0105,0.0068,0.0075,0.0084,0.017,0.0188,0.0195,0.0225,0.0238,0.0241,0.0243,0.0244,0.0275,0.0274,0,0,0,0,0,0,-0.0156,-0.0133,-0.0053,-0.0046,-0.0078,-0.0003,0.0011,0.0026,0.0105,0.0118,0.0083,0.0089,0.0183,0.0191,0.0199,0.0224,0.0241,0.0244,0.0246,0.0276,0.0275,0.0274,0,0,0,0,0,0,-0.0158,-0.0149,-0.0057,-0.0089,-0.0075,-0.0003,0.0013,0.0027,0.0047,0.0116,0.013,0.0089,0.0185,0.0195,0.0211,0.0228,0.0245,0.0248,0.0277,0.0275,0.0274,0.0249,0,0,0,0,0,0,-0.0162,-0.0151,-0.0154,-0.009,-0.0074,-0.0051,0.0012,0.0028,0.005,0.0058,0.0125,0.0137,0.0187,0.0206,0.0213,0.0232,0.025,0.0278,0.0276,0.0275,0.0251,0.0247,0.0244,0,0,0,0,0,-0.0166,-0.0185,-0.0155,-0.0146,-0.0078,-0.0052,-0.0043,0.0016,0.0048,0.0043,0.0092,0.0135,0.0202,0.0207,0.0216,0.0236,0.0278,0.0277,0.0275,0.0252,0.0248,0.0244,0,0,0,0,0,0,-0.0242,-0.0175,-0.0141,-0.0139,-0.0103,-0.0036,-0.004,0.0002,0.0037,0.0047,0.0117,0.0131,0.0154,0.0181,0.0185,0.0236,0.025,0.025,0.023,0.0226,0.0223,0.0219,0.0252,0,0,0,0,0,-0.026,-0.025,-0.0186,-0.0188,-0.0174,-0.0109,-0.0093,-0.0052,-0.0009,0.001,0.0057,0.0106,0.0151,0.0176,0.0207,0.0225,0.0252,0.0244,0.024,0.0237,0.0237,0.0262,0.0262,0.0268,0.0268,0.0268,0,0,-0.0292,-0.0254,-0.0249,-0.0204,-0.0169,-0.0152,-0.0095,-0.008,-0.0052,0.0012,0.0044,0.0085,0.0148,0.0181,0.0195,0.021,0.0252,0.0235,0.0232,0.0234,0.026,0.026,0.026,0.0267,0.0267,0.0267,0,0,-0.0357,-0.0317,-0.033,-0.0298,-0.0252,-0.0204,-0.0205,-0.0145,-0.0105,-0.008,-0.0012,0.0035,0.008,0.0152,0.0191,0.0178,0.0224,0.0182,0.0177,0.0201,0.0202,0.0202,0.0252,0.0257,0.0192,0.0192,0.0191,0,-0.0401,-0.0386,-0.0336,-0.0334,-0.0304,-0.0231,-0.0228,-0.0184,-0.0125,-0.0095,-0.0082,0.0017,0.0077,0.0152,0.0166,0.0176,0.0192,0.0195,0.0199,0.0199,0.02,0.0251,0.0257,0.019,0.019,0.019,0.0191,0,-0.0466,-0.0443,-0.0453,-0.0406,-0.038,-0.0367,-0.0291,-0.0264,-0.0212,-0.0157,-0.01,-0.0025,0.0039,0.0075,0.0127,0.0175,0.0187,0.0184,0.0213,0.0198,0.0253,0.026,0.0188,0.0189,0.0189,0.0189,0,0,-0.0579,-0.0508,-0.0508,-0.0482,-0.0404,-0.0392,-0.0346,-0.0279,-0.0258,-0.019,-0.0157,-0.0043,-0.0006,0.004,0.011,0.0156,0.0205,0.0174,0.0176,0.0231,0.0267,0.0325,0.0339,0.0191,0.0191,0.0192,0.0309,0,-0.0635,-0.0629,-0.0576,-0.0561,-0.054,-0.0451,-0.042,-0.0353,-0.0293,-0.0254,-0.0142,-0.0098,-0.0017,0.0009,0.0071,0.0161,0.0217,0.0174,0.0266,0.027,0.0329,0.0346,0.0412,0.0525,0.0316,0.0317,0.0318,0,-0.0714,-0.0681,-0.0673,-0.0602,-0.0592,-0.0579,-0.0507,-0.0473,-0.0382,-0.0341,-0.0264,-0.0195,-0.0077,-0.0043,0.0124,0.0084,0.0175,0.0246,0.0251,0.0319,0.034,0.0501,0.0545,0.0732,0.0328,0.0327,0.0327,0,-0.0796,-0.0753,-0.0738,-0.0713,-0.0633,-0.0619,-0.0582,-0.0504,-0.0477,-0.0401,-0.0382,-0.0257,-0.0191,-0.0077,0.0114,0.0101,0.0275,0.0271,0.0416,0.0422,0.0506,0.0518,0.0748,0.0368,0.0368,0.0367,0.0367,0,-0.0853,-0.0845,-0.0781,-0.0766,-0.0769,-0.0698,-0.07,-0.0646,-0.0588,-0.0559,-0.044,-0.0382,-0.0204,-0.0068,0.008,0.0289,0.0255,0.0428,0.0456,0.05,0.051,0.0696,0.0752,0.0372,0.0371,0.037,0.0369,0,-0.0927,-0.0885,-0.0872,-0.081,-0.0803,-0.0809,-0.0771,-0.0772,-0.0706,-0.0666,-0.0642,-0.0473,-0.0282,-0.0085,0.0124,0.026,0.0562,0.0515,0.0575,0.0608,0.0897,0.0946,0.118,0.1298,0.0681,0.0683,0.0685,0,-0.095,-0.0948,-0.092,-0.0929,-0.0901,-0.0901,-0.0901,-0.084,-0.0826,-0.0701,-0.068,-0.0492,-0.0321,0.0024,0.0282,0.0549,0.0683,0.0755,0.0749,0.0944,0.1019,0.1057,0.1142,0.0861,0.0864,0.0867,0.0869,0,-0.0974,-0.0977,-0.0961,-0.0989,-0.1002,-0.1013,-0.0999,-0.1006,-0.092,-0.084,-0.0689,-0.0544,-0.0195,0.0157,0.0497,0.066,0.0907,0.0814,0.0998,0.1173,0.1246,0.1363,0.0768,0.0891,0.0889,0.0887,0.0886,0.0885,-0.0989,-0.1006,-0.1003,-0.1034,-0.1064,-0.1095,-0.1093,-0.1049,-0.0988,-0.0792,-0.0682,-0.0329,0.0077,0.058,0.0758,0.1172,0.1111,0.1303,0.1348,0.137,0.149,0.0958,0.1113,0.1112,0.1111,0.111,0.111,0,-0.0981,-0.1004,-0.1041,-0.1075,-0.1123,-0.1125,-0.1127,-0.1075,-0.097,-0.0678,-0.0464,0.0154,0.0586,0.099,0.1483,0.1706,0.1753,0.1814,0.1897,0.1958,0.1488,0.1502,0.1769,0.1769,0.1768,0.1768,0.1768,0.1768,-0.0972,-0.0997,-0.1026,-0.11,-0.1137,-0.1152,-0.1144,-0.1031,-0.081,-0.0307,0.0174,0.0512,0.1019,0.1695,0.217,0.2213,0.2418,0.2385,0.2486,0.2172,0.2127,0.2085,0.2117,0.2508,0.2509,0.2973,0.2977,0.2981]}],[{"header":{"parameterUnit":"m.s-1","parameterCategory":2,"la1":30.2991,"la2":30.254,"lo1":-89.0895,"lo2":-89.0444,"dy":0.0017,"dx":0.0017,"nx":28,"ny":28,"refTime":"2025-09-14T03:00:00:Z","depth":"2","parameterNumber":2,"parameterNumberName":"U-component_of_CURRENTS"},"data":[0,0,0,0,0,0,0,0,0,0,0,0,0,0,0,0,0,0,0,0,0,0,0,0,0,0,0,0,0,0,0,0,0,0,0,0,0,0,0,0,0,0,0,0,0,0,0,0,0,0,0,0,0,0,0,0,0,0,-0.2487,-0.2491,0,-0.2698,-0.2698,-0.2699,-0.2604,-0.2601,-0.2599,-0.2596,-0.2657,-0.2661,-0.2666,0,0,0,0,0,0,0,0,0,0,0,0,0,-0.2168,-0.217,-0.2486,-0.2491,-0.2497,-0.2698,-0.2698,-0.2699,-0.2605,-0.2601,-0.2598,-0.2595,-0.2656,-0.2661,-0.2666,0,0,0,0,0,0,0,0,0,0,0,0,0,-0.2309,-0.2171,-0.2485,-0.2494,-0.2499,-0.2698,-0.2698,-0.2699,-0.2605,-0.2601,-0.2597,-0.2593,-0.2654,-0.266,-0.2667,-0.2788,0,0,-0.2686,-0.2689,0,0,0,0,0,0,0,0,-0.2301,-0.2317,-0.2487,-0.2494,-0.25,-0.2644,-0.261,-0.2731,-0.2606,-0.2536,-0.2596,-0.2591,-0.266,-0.2666,-0.2678,-0.2791,-0.2794,-0.2686,-0.269,-0.2693,-0.2695,0,0,0,0,0,0,0,-0.2291,-0.2309,-0.2542,-0.2494,-0.2502,-0.2547,-0.2557,-0.2632,-0.2595,-0.2542,-0.2542,-0.2611,-0.2658,-0.2672,-0.2679,-0.2795,-0.2686,-0.2692,-0.2696,-0.2698,-0.2916,-0.2918,0,0,0,0,0,0,-0.2316,-0.23,-0.2536,-0.2552,-0.2419,-0.2557,-0.2568,-0.258,-0.2597,-0.2605,-0.2614,-0.2606,-0.2663,-0.2672,-0.2681,-0.2719,-0.2693,-0.2699,-0.2702,-0.2914,-0.2917,-0.2919,0,0,0,0,0,0,-0.2307,-0.2333,-0.2528,-0.2455,-0.2486,-0.2568,-0.2582,-0.2587,-0.2623,-0.2659,-0.2656,-0.2651,-0.266,-0.2672,-0.2738,-0.2724,-0.2702,-0.2707,-0.2912,-0.2915,-0.2918,-0.2865,0,0,0,0,0,0,-0.2296,-0.2326,-0.2359,-0.2455,-0.2492,-0.2604,-0.2589,-0.2595,-0.2684,-0.2674,-0.2691,-0.269,-0.2658,-0.2729,-0.2745,-0.2733,-0.2712,-0.2909,-0.2913,-0.2917,-0.2864,-0.2866,-0.2868,0,0,0,0,0,-0.2282,-0.2331,-0.2357,-0.239,-0.2526,-0.2607,-0.2624,-0.2654,-0.2691,-0.2676,-0.2713,-0.2691,-0.2762,-0.2737,-0.2755,-0.2744,-0.2907,-0.2912,-0.2916,-0.2864,-0.2866,-0.2867,0,0,0,0,0,0,-0.2241,-0.2333,-0.2361,-0.2444,-0.2511,-0.26,-0.265,-0.2696,-0.2725,-0.2736,-0.2743,-0.2745,-0.2821,-0.281,-0.2783,-0.2823,-0.2824,-0.2832,-0.2778,-0.2781,-0.2782,-0.2726,-0.2718,0,0,0,0,0,-0.2253,-0.2282,-0.2388,-0.2457,-0.2499,-0.2592,-0.2652,-0.2673,-0.2732,-0.274,-0.2774,-0.281,-0.286,-0.2837,-0.2904,-0.2922,-0.2903,-0.2924,-0.2925,-0.2926,-0.2897,-0.2877,-0.2871,-0.2934,-0.2934,-0.2933,0,0,-0.2271,-0.233,-0.2354,-0.2449,-0.2514,-0.2565,-0.2605,-0.2696,-0.2713,-0.2754,-0.2798,-0.2874,-0.2895,-0.2912,-0.2935,-0.2878,-0.2903,-0.2931,-0.2931,-0.2901,-0.288,-0.2873,-0.2867,-0.2937,-0.2936,-0.2936,0,0,-0.2304,-0.236,-0.2387,-0.2433,-0.2548,-0.2591,-0.2629,-0.2734,-0.2732,-0.2818,-0.2856,-0.289,-0.2987,-0.293,-0.2931,-0.2989,-0.2978,-0.3046,-0.2923,-0.2905,-0.2897,-0.289,-0.2859,-0.2849,-0.2963,-0.2963,-0.2963,0,-0.2319,-0.2363,-0.2415,-0.2455,-0.2501,-0.2603,-0.2636,-0.267,-0.2777,-0.279,-0.2817,-0.2958,-0.2964,-0.294,-0.2926,-0.2979,-0.299,-0.2901,-0.2898,-0.2892,-0.2885,-0.2855,-0.2845,-0.2961,-0.2961,-0.2961,-0.2961,0,-0.2348,-0.24,-0.2431,-0.2479,-0.252,-0.2576,-0.2634,-0.2677,-0.2745,-0.2788,-0.2855,-0.2877,-0.2914,-0.2932,-0.2934,-0.2898,-0.2932,-0.2964,-0.2873,-0.2874,-0.2844,-0.2835,-0.2958,-0.2958,-0.2959,-0.296,0,0,-0.2327,-0.2421,-0.2433,-0.2455,-0.2529,-0.257,-0.2592,-0.263,-0.267,-0.2735,-0.2753,-0.2787,-0.283,-0.2833,-0.2846,-0.2777,-0.2726,-0.2827,-0.2827,-0.2758,-0.2699,-0.2611,-0.2592,-0.2779,-0.2777,-0.2776,-0.2694,0,-0.2327,-0.2384,-0.2419,-0.2471,-0.2505,-0.2553,-0.2567,-0.2613,-0.2664,-0.2711,-0.2701,-0.2766,-0.2778,-0.2802,-0.274,-0.2789,-0.2703,-0.2746,-0.2741,-0.2739,-0.2628,-0.2577,-0.2405,-0.2308,-0.2685,-0.2683,-0.2682,0,-0.2325,-0.2363,-0.2392,-0.2458,-0.2476,-0.2506,-0.2539,-0.2569,-0.2621,-0.2662,-0.268,-0.2742,-0.2672,-0.2702,-0.2648,-0.2698,-0.2676,-0.2673,-0.2671,-0.2589,-0.2631,-0.2373,-0.2277,-0.2666,-0.2667,-0.2668,-0.2669,0,-0.2257,-0.2343,-0.2353,-0.2373,-0.2457,-0.2459,-0.2501,-0.2557,-0.2572,-0.2625,-0.2659,-0.2656,-0.2648,-0.263,-0.2611,-0.2648,-0.2567,-0.2613,-0.2493,-0.2488,-0.233,-0.2312,-0.2536,-0.2536,-0.2537,-0.2537,-0.2537,0,-0.2215,-0.2238,-0.2333,-0.2338,-0.2363,-0.2429,-0.2451,-0.2501,-0.2553,-0.2568,-0.2625,-0.2614,-0.264,-0.2611,-0.2596,-0.2499,-0.254,-0.2443,-0.2444,-0.2312,-0.2294,-0.2608,-0.2617,-0.2534,-0.2534,-0.2535,-0.2536,0,-0.2132,-0.219,-0.2224,-0.2307,-0.2329,-0.2346,-0.241,-0.2431,-0.2503,-0.2511,-0.2519,-0.2569,-0.2527,-0.2526,-0.2489,-0.2451,-0.239,-0.2341,-0.2174,-0.2154,-0.2329,-0.2337,-0.2191,-0.2187,-0.2183,-0.218,-0.2178,0,-0.2092,-0.2101,-0.2183,-0.2185,-0.2216,-0.2257,-0.2276,-0.2376,-0.2392,-0.2461,-0.2445,-0.2439,-0.2385,-0.2302,-0.2235,-0.215,-0.2259,-0.196,-0.1962,-0.2269,-0.2286,-0.23,-0.2313,-0.1743,-0.1737,-0.1733,-0.1729,0,-0.2001,-0.2034,-0.2048,-0.207,-0.2087,-0.2118,-0.2159,-0.217,-0.2269,-0.2284,-0.2276,-0.2244,-0.2161,-0.1995,-0.1908,-0.1848,-0.1967,-0.1858,-0.2199,-0.1865,-0.1841,-0.1861,-0.1889,-0.1686,-0.169,-0.1693,-0.1696,-0.1697,-0.1918,-0.1906,-0.1921,-0.1926,-0.1947,-0.195,-0.1922,-0.1975,-0.1981,-0.1969,-0.2047,-0.194,-0.1916,-0.167,-0.1574,-0.1508,-0.1649,-0.1602,-0.1618,-0.164,-0.1609,-0.1582,-0.1371,-0.1374,-0.1376,-0.1377,-0.1379,0,-0.1786,-0.1774,-0.1772,-0.1762,-0.1727,-0.1795,-0.1806,-0.1749,-0.1697,-0.1721,-0.1686,-0.1499,-0.1374,-0.1353,-0.1172,-0.1141,-0.1151,-0.1107,-0.1131,-0.1173,-0.121,-0.1161,-0.0802,-0.08,-0.0799,-0.0798,0,0,-0.1703,-0.1638,-0.1636,-0.1532,-0.1527,-0.1433,-0.1406,-0.1355,-0.1332,-0.1251,-0.1203,-0.1289,-0.13,-0.1059,-0.0998,-0.0867,-0.1011,-0.0817,-0.1276,-0.1344,-0.138,-0.1486,-0.1454,0,0,0,0,0]},{"header":{"parameterUnit":"m.s-1","parameterCategory":2,"la1":30.2991,"la2":30.254,"lo1":-89.0895,"lo2":-89.0444,"dy":0.0017,"dx":0.0017,"nx":28,"ny":28,"refTime":"2025-09-14T03:00:00:Z","depth":"2","parameterNumber":3,"parameterNumberName":"V-component_of_CURRENTS"},"data":[0,0,0,0,0,0,0,0,0,0,0,0,0,0,0,0,0,0,0,0,0,0,0,0,0,0,0,0,0,0,0,0,0,0,0,0,0,0,0,0,0,0,0,0,0,0,0,0,0,0,0,0,0,0,0,0,0,0,-0.0364,-0.0363,0,-0.0227,-0.0225,-0.0224,-0.0164,-0.0164,-0.0164,-0.0164,0.0045,0.005,0.0055,0,0,0,0,0,0,0,0,0,0,0,0,0,-0.0441,-0.0441,-0.0365,-0.0363,-0.0361,-0.0227,-0.0225,-0.0224,-0.0164,-0.0164,-0.0164,-0.0164,0.0043,0.0049,0.0056,0,0,0,0,0,0,0,0,0,0,0,0,0,-0.0369,-0.0441,-0.0365,-0.0313,-0.0307,-0.0227,-0.0225,-0.0223,-0.0164,-0.0164,-0.0164,-0.0164,0.0041,0.0049,0.0057,0.0107,0,0,0.0082,0.0086,0,0,0,0,0,0,0,0,-0.0373,-0.0366,-0.0322,-0.0316,-0.0309,-0.021,-0.0175,-0.0108,-0.0164,-0.0221,-0.0164,-0.0164,-0.0032,-0.0018,0.0003,0.0117,0.0126,0.0083,0.0088,0.0092,0.0094,0,0,0,0,0,0,0,-0.0378,-0.0371,-0.0312,-0.032,-0.0312,-0.025,-0.0241,-0.0162,-0.0129,-0.0216,-0.021,-0.0191,-0.0029,-0.0005,0.0009,0.0129,0.0083,0.009,0.0095,0.0098,0.0303,0.0303,0,0,0,0,0,0,-0.0397,-0.0377,-0.0317,-0.0308,-0.0339,-0.0249,-0.0239,-0.0244,-0.0131,-0.0114,-0.0191,-0.0189,-0.0019,-0.0001,0.0016,0.0086,0.0091,0.0099,0.0104,0.0302,0.0303,0.0303,0,0,0,0,0,0,-0.04,-0.0394,-0.0322,-0.0335,-0.0322,-0.0248,-0.0254,-0.0241,-0.0205,-0.0113,-0.0095,-0.0166,-0.0018,0.0005,0.0078,0.0094,0.0103,0.011,0.0302,0.0302,0.0303,0.0223,0,0,0,0,0,0,-0.0403,-0.0397,-0.0394,-0.0338,-0.0322,-0.0301,-0.0253,-0.0238,-0.0192,-0.0188,-0.0085,-0.0067,-0.0017,0.0065,0.0086,0.0106,0.0117,0.0301,0.0302,0.0303,0.0225,0.0221,0.0217,0,0,0,0,0,-0.0407,-0.0418,-0.0396,-0.0387,-0.0326,-0.0302,-0.0289,-0.0236,-0.0191,-0.0198,-0.0118,-0.0069,0.0086,0.0072,0.0097,0.0119,0.0301,0.0302,0.0303,0.0227,0.0222,0.0217,0,0,0,0,0,0,-0.0444,-0.0411,-0.0386,-0.0384,-0.0353,-0.0291,-0.0275,-0.023,-0.0169,-0.0147,-0.0061,-0.0038,0.0056,0.0087,0.007,0.018,0.0202,0.0208,0.0136,0.0132,0.0128,0.0074,0.0124,0,0,0,0,0,-0.0452,-0.0456,-0.0412,-0.0409,-0.0396,-0.0328,-0.03,-0.0266,-0.0206,-0.0179,-0.0106,-0.002,0.0079,0.01,0.0196,0.0232,0.0269,0.0263,0.0259,0.0255,0.0228,0.0292,0.0291,0.0306,0.0306,0.0306,0,0,-0.0462,-0.0443,-0.0442,-0.0417,-0.038,-0.0367,-0.0314,-0.0281,-0.0258,-0.0162,-0.0104,-0.0002,0.01,0.0162,0.0201,0.018,0.0273,0.0256,0.0252,0.0227,0.0293,0.0291,0.029,0.0307,0.0307,0.0307,0,0,-0.0494,-0.0472,-0.0488,-0.0468,-0.0423,-0.0384,-0.0376,-0.0313,-0.028,-0.0216,-0.0115,-0.0045,0.0088,0.0133,0.0186,0.0208,0.0288,0.0268,0.0162,0.0225,0.0223,0.0222,0.0273,0.0277,0.0219,0.0219,0.0219,0,-0.0503,-0.0514,-0.0486,-0.0492,-0.0468,-0.0396,-0.0396,-0.0354,-0.0273,-0.0239,-0.0211,-0.0006,0.0063,0.0145,0.0141,0.0197,0.0253,0.017,0.0217,0.0217,0.0217,0.0269,0.0275,0.0215,0.0215,0.0216,0.0216,0,-0.055,-0.0544,-0.0551,-0.0535,-0.0515,-0.0502,-0.0447,-0.0413,-0.0344,-0.0289,-0.0179,-0.0092,0.0008,0.0053,0.01,0.015,0.02,0.0242,0.022,0.021,0.0267,0.0274,0.021,0.0211,0.0212,0.0213,0,0,-0.0604,-0.0587,-0.0586,-0.0579,-0.0532,-0.0522,-0.0488,-0.0437,-0.04,-0.0321,-0.0271,-0.0148,-0.0093,-0.0036,0.0042,0.0056,0.0098,0.0124,0.013,0.0157,0.0248,0.0283,0.0295,0.0168,0.0169,0.0169,0.0287,0,-0.064,-0.0661,-0.0639,-0.0636,-0.0634,-0.0571,-0.0548,-0.0489,-0.042,-0.0358,-0.0268,-0.0173,-0.0126,-0.0075,-0.0048,0.0095,0.0114,0.0062,0.0267,0.0272,0.029,0.0302,0.0283,0.0387,0.0295,0.0296,0.0297,0,-0.0695,-0.0693,-0.0709,-0.0676,-0.0671,-0.066,-0.0601,-0.0571,-0.0475,-0.0419,-0.0339,-0.0236,-0.0177,-0.0136,0.0022,0.0002,0.0101,0.0183,0.0191,0.0248,0.032,0.0384,0.0404,0.031,0.0309,0.0308,0.0307,0,-0.0747,-0.074,-0.0751,-0.0742,-0.07,-0.0692,-0.0663,-0.0587,-0.0559,-0.0461,-0.0417,-0.03,-0.0234,-0.0105,0.0051,0.0054,0.0233,0.0265,0.0385,0.0389,0.0418,0.0424,0.0361,0.0361,0.0361,0.0361,0.036,0,-0.0791,-0.0797,-0.0778,-0.078,-0.0785,-0.0742,-0.073,-0.0681,-0.0612,-0.0572,-0.0459,-0.0395,-0.022,-0.0087,0.0047,0.0237,0.0236,0.0364,0.0421,0.0393,0.0394,0.0361,0.0359,0.0365,0.0364,0.0363,0.0363,0,-0.084,-0.0829,-0.0842,-0.0816,-0.0812,-0.0817,-0.0788,-0.0774,-0.0702,-0.0648,-0.0619,-0.0458,-0.0279,-0.0099,0.0123,0.0234,0.0409,0.0477,0.0423,0.047,0.0522,0.0515,0.0616,0.0618,0.062,0.0622,0.0623,0,-0.0866,-0.0878,-0.0882,-0.0898,-0.0888,-0.0888,-0.0887,-0.0827,-0.0806,-0.0678,-0.0651,-0.0469,-0.0316,0.0012,0.0238,0.0482,0.0476,0.0597,0.0579,0.0502,0.0547,0.0537,0.0528,0.0595,0.0596,0.0597,0.0597,0,-0.0901,-0.0907,-0.0913,-0.0952,-0.0967,-0.098,-0.0968,-0.0966,-0.0882,-0.08,-0.0658,-0.0523,-0.021,0.0069,0.037,0.0507,0.0553,0.0621,0.058,0.0526,0.049,0.0532,0.0522,0.0604,0.0604,0.0603,0.0603,0.0602,-0.0923,-0.0945,-0.0963,-0.0996,-0.1026,-0.1051,-0.105,-0.101,-0.0949,-0.08,-0.0671,-0.0432,-0.0185,0.0261,0.0467,0.065,0.0649,0.0699,0.0693,0.0687,0.0656,0.0625,0.0758,0.0758,0.0758,0.0759,0.0759,0,-0.0934,-0.0962,-0.1004,-0.1044,-0.1086,-0.1085,-0.1083,-0.1043,-0.0952,-0.0788,-0.0604,-0.0294,0.002,0.0262,0.0566,0.0746,0.072,0.0764,0.0697,0.069,0.0684,0.0649,0.0752,0.0752,0.0752,0.0752,0,0,-0.094,-0.0976,-0.1001,-0.1074,-0.1108,-0.1125,-0.1118,-0.1027,-0.0904,-0.0709,-0.052,-0.027,0.0029,0.0242,0.0466,0.0615,0.0599,0.0624,0.0614,0.0502,0.0493,0.0637,0.0576,0,0,0,0,0]}],[{"header":{"parameterUnit":"m.s-1","parameterCategory":2,"la1":30.2991,"la2":30.254,"lo1":-89.0895,"lo2":-89.0444,"dy":0.0017,"dx":0.0017,"nx":28,"ny":28,"refTime":"2025-09-14T03:00:00:Z","depth":"4","parameterNumber":2,"parameterNumberName":"U-component_of_CURRENTS"},"data":[0,0,0,0,0,0,0,0,0,0,0,0,0,0,0,0,0,0,0,0,0,0,0,0,0,0,0,0,0,0,0,0,0,0,0,0,0,0,0,0,0,0,0,0,0,0,0,0,0,0,0,0,0,0,0,0,0,0,-0.1425,-0.1425,0,-0.1529,-0.1531,-0.1532,-0.1599,-0.1599,-0.1599,-0.1599,-0.1686,-0.1688,-0.169,0,0,0,0,0,0,0,0,0,0,0,0,0,-0.1331,-0.1332,-0.1425,-0.1426,-0.1427,-0.1529,-0.1531,-0.1533,-0.1599,-0.1599,-0.1599,-0.1599,-0.1685,-0.1688,-0.169,0,0,0,0,0,0,0,0,0,0,0,0,0,-0.14,-0.1332,-0.1424,-0.1469,-0.1474,-0.1529,-0.1531,-0.1533,-0.1599,-0.1599,-0.1599,-0.1599,-0.1684,-0.1687,-0.1691,-0.1709,0,0,-0.1701,-0.1702,0,0,0,0,0,0,0,0,-0.1396,-0.1404,-0.1462,-0.1466,-0.1472,-0.1548,-0.153,-0.159,-0.1599,-0.1555,-0.1599,-0.1599,-0.1636,-0.1643,-0.1668,-0.1713,-0.1717,-0.1701,-0.1703,-0.1705,-0.1706,0,0,0,0,0,0,0,-0.1391,-0.14,-0.1469,-0.1463,-0.1469,-0.1501,-0.1511,-0.1542,-0.1596,-0.1559,-0.1563,-0.157,-0.1639,-0.1664,-0.167,-0.1718,-0.1701,-0.1704,-0.1706,-0.1707,-0.1848,-0.185,0,0,0,0,0,0,-0.1369,-0.1395,-0.1466,-0.1472,-0.143,-0.1502,-0.1514,-0.1526,-0.1596,-0.1606,-0.1569,-0.1572,-0.1659,-0.1666,-0.1673,-0.1741,-0.1705,-0.1708,-0.171,-0.1846,-0.1849,-0.185,0,0,0,0,0,0,-0.1367,-0.1375,-0.1462,-0.1433,-0.1446,-0.1503,-0.1517,-0.1528,-0.1572,-0.1603,-0.1614,-0.1603,-0.1659,-0.1669,-0.1725,-0.1743,-0.1709,-0.1712,-0.1844,-0.1847,-0.1849,-0.1849,0,0,0,0,0,0,-0.1364,-0.1373,-0.1397,-0.1432,-0.1447,-0.151,-0.1517,-0.153,-0.1573,-0.1578,-0.1635,-0.1643,-0.166,-0.172,-0.1728,-0.1747,-0.1715,-0.1842,-0.1846,-0.1849,-0.1846,-0.1851,-0.1855,0,0,0,0,0,-0.136,-0.139,-0.1398,-0.1407,-0.147,-0.1511,-0.1523,-0.1566,-0.1574,-0.1604,-0.1642,-0.1642,-0.1746,-0.1724,-0.1734,-0.1753,-0.1841,-0.1845,-0.1848,-0.1845,-0.185,-0.1854,0,0,0,0,0,0,-0.1367,-0.14,-0.141,-0.145,-0.1482,-0.1521,-0.1558,-0.1575,-0.163,-0.1646,-0.1665,-0.1676,-0.1725,-0.1749,-0.1724,-0.1807,-0.1793,-0.1799,-0.1787,-0.1793,-0.1797,-0.1812,-0.1718,0,0,0,0,0,-0.1375,-0.1401,-0.1434,-0.1465,-0.1485,-0.1523,-0.1551,-0.1579,-0.1619,-0.1645,-0.1677,-0.1718,-0.1747,-0.1778,-0.1808,-0.1861,-0.1867,-0.1882,-0.1886,-0.1889,-0.191,-0.1945,-0.1953,-0.1863,-0.1863,-0.1863,0,0,-0.1382,-0.1405,-0.142,-0.1468,-0.1499,-0.1538,-0.1542,-0.1595,-0.1631,-0.1645,-0.1713,-0.1729,-0.1762,-0.1813,-0.1839,-0.1839,-0.1911,-0.1894,-0.1896,-0.1916,-0.195,-0.1958,-0.1966,-0.1866,-0.1865,-0.1865,0,0,-0.1398,-0.1434,-0.146,-0.149,-0.1541,-0.1571,-0.1585,-0.1637,-0.1671,-0.173,-0.1739,-0.1779,-0.1834,-0.1862,-0.1879,-0.1932,-0.1921,-0.1935,-0.1981,-0.2013,-0.2021,-0.2027,-0.2007,-0.2012,-0.195,-0.195,-0.195,0,-0.1408,-0.1443,-0.1475,-0.1508,-0.154,-0.1582,-0.1621,-0.1663,-0.1727,-0.176,-0.1758,-0.1845,-0.1861,-0.1919,-0.1933,-0.194,-0.1939,-0.195,-0.2016,-0.2023,-0.203,-0.2009,-0.2014,-0.195,-0.195,-0.195,-0.195,0,-0.1436,-0.1474,-0.1495,-0.1548,-0.1591,-0.1635,-0.1686,-0.1744,-0.1782,-0.1815,-0.1884,-0.1913,-0.1967,-0.1967,-0.1965,-0.2023,-0.1996,-0.2001,-0.1996,-0.2039,-0.2013,-0.2019,-0.1951,-0.195,-0.195,-0.195,0,0,-0.142,-0.1499,-0.151,-0.155,-0.1619,-0.1665,-0.1731,-0.1806,-0.1867,-0.1917,-0.1979,-0.202,-0.2036,-0.2058,-0.2059,-0.2089,-0.2107,-0.2069,-0.207,-0.2034,-0.2142,-0.1967,-0.1956,-0.212,-0.2122,-0.2124,-0.2089,0,-0.1432,-0.1504,-0.154,-0.1621,-0.1663,-0.1729,-0.1792,-0.1869,-0.1927,-0.2,-0.2034,-0.2088,-0.2069,-0.2095,-0.2122,-0.2115,-0.2129,-0.2114,-0.2121,-0.212,-0.1948,-0.196,-0.213,-0.2093,-0.2094,-0.2095,-0.2096,0,-0.144,-0.1492,-0.1566,-0.1673,-0.1702,-0.1763,-0.1892,-0.1952,-0.2048,-0.209,-0.215,-0.2168,-0.2214,-0.2191,-0.2217,-0.2206,-0.2181,-0.2168,-0.2167,-0.2016,-0.1957,-0.2055,-0.2106,-0.2105,-0.2104,-0.2104,-0.2103,0,-0.1412,-0.1514,-0.1583,-0.1614,-0.1734,-0.18,-0.1878,-0.1985,-0.2038,-0.2146,-0.2181,-0.2248,-0.2268,-0.2281,-0.2235,-0.2238,-0.2238,-0.2241,-0.2059,-0.2045,-0.2213,-0.2207,-0.2266,-0.2266,-0.2266,-0.2266,-0.2266,0,-0.1392,-0.1454,-0.1589,-0.1622,-0.1729,-0.1815,-0.1923,-0.201,-0.2104,-0.2145,-0.2223,-0.2239,-0.2294,-0.2285,-0.2259,-0.215,-0.2256,-0.2064,-0.2033,-0.2207,-0.2202,-0.2213,-0.2208,-0.2265,-0.2265,-0.2265,-0.2266,0,-0.1337,-0.1415,-0.151,-0.1659,-0.171,-0.1793,-0.1929,-0.1988,-0.2095,-0.2144,-0.217,-0.2236,-0.221,-0.2221,-0.2217,-0.2144,-0.2088,-0.2025,-0.2175,-0.2153,-0.1868,-0.1863,-0.1831,-0.1825,-0.182,-0.1815,-0.1812,0,-0.1311,-0.1351,-0.1525,-0.1572,-0.164,-0.1764,-0.1823,-0.1963,-0.1999,-0.2104,-0.2097,-0.212,-0.2133,-0.1978,-0.2021,-0.1953,-0.1929,-0.1895,-0.1917,-0.1854,-0.1828,-0.1832,-0.1834,-0.1803,-0.1802,-0.18,-0.1799,0,-0.1257,-0.1335,-0.1412,-0.1505,-0.1586,-0.1668,-0.1763,-0.1778,-0.1899,-0.201,-0.1959,-0.1928,-0.1883,-0.1854,-0.18,-0.1762,-0.1924,-0.1839,-0.1851,-0.1871,-0.1819,-0.18,-0.1808,-0.178,-0.1783,-0.1785,-0.1786,0,-0.1225,-0.1261,-0.1353,-0.1421,-0.1505,-0.1527,-0.161,-0.1632,-0.1685,-0.1799,-0.1768,-0.1788,-0.185,-0.175,-0.1707,-0.1645,-0.1629,-0.1595,-0.1619,-0.164,-0.1592,-0.1499,-0.1332,0,0,0,0,0,-0.118,-0.1189,-0.1247,-0.1309,-0.1379,-0.142,-0.1533,-0.1606,-0.172,-0.1631,-0.1696,-0.1639,-0.1565,-0.1584,-0.1476,-0.1622,-0.1641,-0.1492,-0.1617,-0.1678,-0.17,-0.166,0,0,0,0,0,0,-0.1141,-0.1197,-0.1207,-0.1181,-0.1186,-0.1247,-0.1308,-0.1397,-0.1364,-0.148,-0.1442,-0.1528,-0.1476,-0.1577,-0.1432,-0.1437,-0.1481,-0.1518,-0.1513,-0.1666,-0.1685,-0.1703,-0.167,0,0,0,0,0]},{"header":{"parameterUnit":"m.s-1","parameterCategory":2,"la1":30.2991,"la2":30.254,"lo1":-89.0895,"lo2":-89.0444,"dy":0.0017,"dx":0.0017,"nx":28,"ny":28,"refTime":"2025-09-14T03:00:00:Z","depth":"4","parameterNumber":3,"parameterNumberName":"V-component_of_CURRENTS"},"data":[0,0,0,0,0,0,0,0,0,0,0,0,0,0,0,0,0,0,0,0,0,0,0,0,0,0,0,0,0,0,0,0,0,0,0,0,0,0,0,0,0,0,0,0,0,0,0,0,0,0,0,0,0,0,0,0,0,0,-0.0366,-0.0366,0,-0.0339,-0.0338,-0.0338,-0.031,-0.031,-0.031,-0.0309,-0.0238,-0.0236,-0.0235,0,0,0,0,0,0,0,0,0,0,0,0,0,-0.0357,-0.0357,-0.0366,-0.0366,-0.0365,-0.0339,-0.0338,-0.0338,-0.031,-0.031,-0.031,-0.0309,-0.0239,-0.0237,-0.0235,0,0,0,0,0,0,0,0,0,0,0,0,0,-0.0347,-0.0358,-0.0366,-0.035,-0.0348,-0.0339,-0.0338,-0.0338,-0.031,-0.031,-0.0309,-0.0309,-0.0239,-0.0237,-0.0234,-0.0225,0,0,-0.0227,-0.0225,0,0,0,0,0,0,0,0,-0.0348,-0.0347,-0.0352,-0.0351,-0.0349,-0.0329,-0.0309,-0.0298,-0.031,-0.0323,-0.0309,-0.0309,-0.0266,-0.0261,-0.0255,-0.0222,-0.0219,-0.0226,-0.0225,-0.0224,-0.0223,0,0,0,0,0,0,0,-0.0348,-0.0348,-0.0353,-0.0352,-0.035,-0.0331,-0.033,-0.0307,-0.0294,-0.0322,-0.032,-0.032,-0.0264,-0.0257,-0.0253,-0.0218,-0.0226,-0.0224,-0.0223,-0.0222,-0.0157,-0.0156,0,0,0,0,0,0,-0.0358,-0.0349,-0.0354,-0.0353,-0.0349,-0.0332,-0.033,-0.0334,-0.0295,-0.029,-0.032,-0.0319,-0.0262,-0.0256,-0.025,-0.0241,-0.0224,-0.0221,-0.022,-0.0157,-0.0156,-0.0156,0,0,0,0,0,0,-0.0358,-0.0359,-0.0355,-0.0351,-0.035,-0.0333,-0.0338,-0.0334,-0.0333,-0.0295,-0.0288,-0.0324,-0.0261,-0.0254,-0.0235,-0.0238,-0.022,-0.0218,-0.0157,-0.0157,-0.0156,-0.022,0,0,0,0,0,0,-0.0358,-0.0359,-0.0366,-0.0352,-0.035,-0.0358,-0.0338,-0.0334,-0.0334,-0.0332,-0.0296,-0.0289,-0.0261,-0.0239,-0.0233,-0.0234,-0.0216,-0.0157,-0.0157,-0.0156,-0.0218,-0.0222,-0.0225,0,0,0,0,0,-0.0357,-0.0371,-0.0367,-0.0367,-0.0361,-0.0359,-0.0356,-0.0341,-0.0335,-0.0339,-0.0313,-0.029,-0.0231,-0.0238,-0.023,-0.023,-0.0157,-0.0157,-0.0156,-0.0217,-0.0221,-0.0225,0,0,0,0,0,0,-0.0368,-0.0369,-0.0364,-0.0376,-0.0372,-0.0355,-0.0359,-0.035,-0.0334,-0.0329,-0.0294,-0.0285,-0.0273,-0.0239,-0.0247,-0.0208,-0.0188,-0.0186,-0.0236,-0.024,-0.0244,-0.022,-0.0214,0,0,0,0,0,-0.0376,-0.0387,-0.0381,-0.039,-0.0391,-0.0377,-0.0376,-0.0365,-0.0349,-0.0342,-0.0318,-0.0286,-0.0264,-0.0244,-0.0222,-0.02,-0.0145,-0.0191,-0.0195,-0.0198,-0.0172,-0.0089,-0.0082,-0.0155,-0.0155,-0.0155,0,0,-0.0384,-0.0385,-0.0392,-0.0394,-0.0389,-0.0392,-0.0375,-0.0377,-0.0373,-0.0336,-0.0326,-0.0307,-0.0265,-0.0246,-0.0235,-0.0216,-0.0156,-0.0197,-0.0201,-0.0172,-0.0088,-0.008,-0.0074,-0.0154,-0.0154,-0.0155,0,0,-0.0406,-0.0407,-0.0425,-0.0423,-0.042,-0.0408,-0.0413,-0.0402,-0.0391,-0.0382,-0.0355,-0.0327,-0.0301,-0.0259,-0.0237,-0.024,-0.0188,-0.0244,-0.0229,-0.0151,-0.0144,-0.0137,-0.0091,-0.0079,-0.0232,-0.0233,-0.0233,0,-0.0417,-0.0433,-0.0429,-0.0441,-0.0438,-0.042,-0.0429,-0.0417,-0.0398,-0.0379,-0.0385,-0.0321,-0.0298,-0.0246,-0.0251,-0.0246,-0.0204,-0.0225,-0.0155,-0.0147,-0.0138,-0.0092,-0.0078,-0.0236,-0.0235,-0.0235,-0.0235,0,-0.045,-0.046,-0.0469,-0.0476,-0.0473,-0.0478,-0.046,-0.045,-0.0437,-0.0413,-0.0375,-0.0338,-0.0287,-0.0287,-0.0273,-0.0205,-0.0198,-0.0183,-0.0147,-0.0135,-0.0088,-0.0072,-0.024,-0.0239,-0.0238,-0.0237,0,0,-0.048,-0.0492,-0.0495,-0.0499,-0.0489,-0.0491,-0.0478,-0.0452,-0.0434,-0.0406,-0.0367,-0.033,-0.0297,-0.0267,-0.0241,-0.0171,-0.0103,-0.0154,-0.0149,-0.0112,0.0052,0.0017,0.0031,-0.0078,-0.0075,-0.0073,0.0048,0,-0.0505,-0.0535,-0.0528,-0.0542,-0.0551,-0.0523,-0.0511,-0.048,-0.045,-0.0409,-0.0343,-0.0308,-0.0293,-0.0274,-0.0201,-0.0134,-0.0059,-0.0138,0.0041,0.0046,0.0012,0.005,-0.0063,0.006,0.0064,0.0067,0.0069,0,-0.0538,-0.0549,-0.0575,-0.0567,-0.0569,-0.0572,-0.0536,-0.0524,-0.0452,-0.0423,-0.0353,-0.0307,-0.0214,-0.0204,-0.0041,-0.0096,-0.0015,0.0044,0.005,0.0063,0.0042,0.0057,0.0098,0.0095,0.0093,0.0091,0.0089,0,-0.056,-0.0577,-0.0598,-0.0599,-0.0591,-0.059,-0.058,-0.0528,-0.051,-0.0426,-0.0397,-0.0279,-0.0228,-0.0099,0.001,-0.0007,0.019,0.0184,0.0238,0.0235,0.0256,0.0248,0.0335,0.0334,0.0334,0.0334,0.0333,0,-0.0581,-0.0597,-0.0615,-0.0625,-0.0641,-0.0621,-0.0619,-0.0588,-0.0533,-0.05,-0.0409,-0.035,-0.0195,-0.0077,0.0031,0.0175,0.0215,0.0263,0.028,0.022,0.0207,0.0265,0.0256,0.0338,0.0337,0.0336,0.0336,0,-0.0598,-0.0612,-0.0641,-0.0649,-0.0657,-0.0671,-0.0668,-0.0657,-0.0602,-0.0553,-0.0527,-0.039,-0.0238,-0.0088,0.0118,0.0187,0.0334,0.0382,0.0293,0.0299,0.0321,0.0306,0.0461,0.0461,0.0461,0.0461,0.0461,0,-0.0608,-0.0626,-0.067,-0.0697,-0.0708,-0.0727,-0.0736,-0.0699,-0.068,-0.0575,-0.0545,-0.0394,-0.0291,-0.0022,0.0126,0.0341,0.0366,0.0431,0.0399,0.0341,0.0342,0.0327,0.0313,0.0461,0.0462,0.0462,0.0462,0,-0.0621,-0.0648,-0.0674,-0.0731,-0.0764,-0.0788,-0.0793,-0.0782,-0.0721,-0.0676,-0.0532,-0.0384,-0.0212,-0.0017,0.0147,0.0299,0.038,0.0433,0.0434,0.0405,0.0343,0.0341,0.0327,0.0462,0.0462,0.0462,0.0462,0,-0.0635,-0.0666,-0.0711,-0.0755,-0.0806,-0.0827,-0.0828,-0.078,-0.0746,-0.0622,-0.0574,-0.0376,-0.0254,-0.0037,0.0116,0.0256,0.0287,0.0319,0.0326,0.0327,0.024,0.0139,0.0235,0,0,0,0,0,-0.064,-0.0675,-0.0726,-0.0777,-0.0829,-0.085,-0.0852,-0.0837,-0.0779,-0.068,-0.0619,-0.0449,-0.0199,-0.0085,0.0054,0.0091,0.0284,0.0253,0.0318,0.0465,0.0464,0.038,0,0,0,0,0,0,-0.0647,-0.0701,-0.0724,-0.0784,-0.082,-0.0864,-0.0867,-0.0829,-0.0757,-0.0678,-0.0536,-0.0439,-0.0194,-0.0276,0.0051,0.0094,0.0147,0.0379,0.0382,0.0465,0.0464,0.0464,0.0378,0,0,0,0,0]}]]